Norfolk NAS, VA

9:57 PM EST on December 08, 2019 (GMT -0500)
Norfolk Naval Station / Chambers Field

Weather History for KNGU - November, 2019

Change the Weather History Date:

Thursday, November 21, 2019

  Actual Average Record
Temperature  
Mean Temperature 48 °F -  
Max Temperature 53 °F 57 °F 77 °F (2007)
Min Temperature 44 °F 42 °F 32 °F (2000)
Degree Days  
Heating Degree Days 16    
Moisture  
Dew Point 36 °F    
Average Humidity 62    
Maximum Humidity 71    
Minimum Humidity 45    
Precipitation  
Precipitation 0.00 in - - ()
Sea Level Pressure  
Sea Level Pressure 30.23 in    
Wind  
Wind Speed 8 mph ()    
Max Wind Speed 15 mph    
Max Gust Speed -    
Visibility 9.6 miles    
Events      
Averages and records for this station are not official NWS values.
T = Trace of Precipitation, MM = Missing Value Source: Averaged Metar Reports

Daily Weather History Graph

Daily Weather History Graph

Search for Another Location

Airport or City:

Astronomy

Nov. 21, 2019 Rise Set
Actual Time 6:49 AM EST 4:52 PM EST
Civil Twilight 6:21 AM EST 5:20 PM EST
Nautical Twilight 5:49 AM EST 5:51 PM EST
Astronomical Twilight 5:18 AM EST 6:22 PM EST
Moon 12:53 AM EST (11/21) 2:10 PM EST (11/21)
Length of Visible Light 10h 58m
Length of Day
10h 02m
Waning Crescent, 30% of the Moon is Illuminated
Nov 21
Waning Crescent
Nov 26
New
Dec 4
First Quarter
Dec 12
Full
Dec 18
Last Quarter

Hourly Weather History & Observations

Time (EST) Temp. Windchill Dew Point Humidity Pressure Visibility Wind Dir Wind Speed Gust Speed Precip Events Conditions
12:59 AM 46.0 °F 39.6 °F 34.0 °F 63% 30.23 in 10.0 mi NW 15.0 mph - N/A   Clear
1:59 AM 45.0 °F 38.2 °F 34.0 °F 65% 30.24 in 10.0 mi NW 15.0 mph - N/A   Clear
2:59 AM 45.0 °F 38.2 °F 34.0 °F 65% 30.25 in 10.0 mi NNW 15.0 mph - N/A   Clear
3:59 AM 44.1 °F 37.7 °F 35.1 °F 71% 30.25 in 9.0 mi NNW 12.7 mph - N/A   Clear
4:59 AM 44.1 °F 39.0 °F 34.0 °F 68% 30.25 in 10.0 mi NNW 9.2 mph - N/A   Clear
5:59 AM 44.1 °F 39.0 °F 34.0 °F 68% 30.27 in 9.0 mi NNW 9.2 mph - N/A   Clear
8:59 AM 48.0 °F - 36.0 °F 63% 30.30 in 9.0 mi North 8.1 mph - N/A   Partly Cloudy
9:59 AM 50.0 °F - 36.0 °F 59% 30.31 in 9.0 mi NNW 9.2 mph - N/A   Partly Cloudy
10:59 AM 51.1 °F - 37.0 °F 59% 30.30 in 9.0 mi NNW 9.2 mph - N/A   Partly Cloudy
11:59 AM 51.1 °F - 36.0 °F 56% 30.27 in 9.0 mi Calm Calm - N/A   Partly Cloudy
12:59 PM 53.1 °F - 36.0 °F 52% 30.24 in 9.0 mi WNW 3.5 mph - N/A   Mostly Cloudy
1:59 PM 53.1 °F - 37.0 °F 55% 30.22 in 8.0 mi Calm Calm - N/A   Mostly Cloudy
2:59 PM 53.1 °F - 32.0 °F 45% 30.21 in 10.0 mi West 5.8 mph - N/A   Mostly Cloudy
3:59 PM 52.0 °F - 33.1 °F 49% 30.21 in 10.0 mi West 3.5 mph - N/A   Mostly Cloudy
4:59 PM 46.9 °F - 36.0 °F 66% 30.22 in 10.0 mi SW 3.5 mph - N/A   Mostly Cloudy
5:59 PM 46.9 °F - 37.0 °F 68% 30.20 in 10.0 mi SSW 3.5 mph - N/A   Mostly Cloudy
6:59 PM 48.0 °F - 37.9 °F 68% 30.19 in 10.0 mi South 3.5 mph - N/A   Mostly Cloudy
7:59 PM 48.9 °F - 37.0 °F 64% 30.20 in 10.0 mi SSW 4.6 mph - N/A   Mostly Cloudy
8:59 PM 46.9 °F - 37.0 °F 68% 30.18 in 10.0 mi South 4.6 mph - N/A   Mostly Cloudy
9:59 PM 48.0 °F - 36.0 °F 63% 30.17 in 10.0 mi South 4.6 mph - N/A   Mostly Cloudy
10:59 PM 50.0 °F - 36.0 °F 59% 30.14 in 10.0 mi SSW 9.2 mph - N/A   Mostly Cloudy
11:59 PM 48.9 °F - 37.0 °F 64% 30.12 in 10.0 mi SSW 8.1 mph - N/A   Mostly Cloudy